WZZ10 LHBP-LRSV

Flight info

Callsign WZZ10
Flight time 0h 54m
Altitude 35000
Route WITRI DCT LONLA/K0828F350 M986 IVF DCT BUKOV
Aircraft A320/M-SDE3FGHIRWY/LB1

Departure

Time 2026-05-06 07:13
Airport Budapest Liszt Ferenc International Airport (LHBP)

Arrival

Time 2026-05-06 08:07
Airport Suceava Ștefan cel Mare International Airport (LRSV)
Time Latitude Longitude Altitude Speed Heading
2026-05-06 07:09 47.43159 19.25729 457 ft 0 kts 313°
2026-05-06 07:09 47.43161 19.25726 457 ft 2 kts 313°
2026-05-06 07:10 47.43188 19.25682 457 ft 9 kts 313°
2026-05-06 07:10 47.43242 19.25596 457 ft 14 kts 312°
2026-05-06 07:10 47.43310 19.25485 457 ft 13 kts 311°
2026-05-06 07:10 47.43326 19.25392 457 ft 7 kts 255°
2026-05-06 07:11 47.43294 19.25327 457 ft 10 kts 223°
2026-05-06 07:11 47.43237 19.25248 457 ft 13 kts 223°
2026-05-06 07:11 47.43162 19.25146 457 ft 16 kts 223°
2026-05-06 07:11 47.43084 19.25034 457 ft 16 kts 233°
2026-05-06 07:12 47.43090 19.24965 456 ft 2 kts 315°
2026-05-06 07:12 47.43108 19.24940 457 ft 6 kts 315°
2026-05-06 07:12 47.43245 19.24707 456 ft 66 kts 312°
2026-05-06 07:12 47.43711 19.23942 453 ft 127 kts 310°
2026-05-06 07:13 47.44373 19.22746 567 ft 161 kts 304°
2026-05-06 07:13 47.45030 19.21642 1459 ft 138 kts 310°
2026-05-06 07:13 47.45789 19.20621 1862 ft 157 kts 310°
2026-05-06 07:13 47.46588 19.19383 2157 ft 178 kts 307°
2026-05-06 07:14 47.47468 19.17930 2439 ft 201 kts 307°
2026-05-06 07:14 47.48492 19.16326 2857 ft 229 kts 313°
2026-05-06 07:14 47.49747 19.14689 3373 ft 253 kts 316°
2026-05-06 07:14 47.51149 19.12994 4176 ft 264 kts 318°
2026-05-06 07:15 47.52599 19.11280 5117 ft 270 kts 318°
2026-05-06 07:15 47.54077 19.09529 6027 ft 274 kts 318°
2026-05-06 07:15 47.55556 19.07757 6915 ft 279 kts 317°
2026-05-06 07:15 47.57060 19.05931 7794 ft 282 kts 317°
2026-05-06 07:16 47.58586 19.04066 8681 ft 286 kts 316°
2026-05-06 07:16 47.60123 19.02183 9543 ft 289 kts 316°
2026-05-06 07:16 47.61694 19.00273 10296 ft 297 kts 319°
2026-05-06 07:16 47.63637 18.98914 10498 ft 329 kts 346°
2026-05-06 07:17 47.66020 18.98948 10679 ft 358 kts 10°
2026-05-06 07:17 47.68365 19.00347 11170 ft 373 kts 31°
2026-05-06 07:17 47.70368 19.02770 11806 ft 379 kts 41°
2026-05-06 07:17 47.72317 19.05424 12503 ft 383 kts 42°
2026-05-06 07:18 47.74287 19.08133 13180 ft 387 kts 42°
2026-05-06 07:18 47.76262 19.10871 13847 ft 391 kts 42°
2026-05-06 07:18 47.78261 19.13653 14477 ft 394 kts 42°
2026-05-06 07:18 47.80129 19.16650 15081 ft 398 kts 52°
2026-05-06 07:19 47.81635 19.20129 15705 ft 401 kts 62°
2026-05-06 07:19 47.82969 19.23772 16344 ft 403 kts 62°
2026-05-06 07:19 47.84318 19.27455 16953 ft 406 kts 62°
2026-05-06 07:19 47.85671 19.31147 17596 ft 408 kts 62°
2026-05-06 07:20 47.87018 19.34832 18208 ft 411 kts 62°
2026-05-06 07:20 47.88384 19.38575 18756 ft 414 kts 61°
2026-05-06 07:20 47.89765 19.42362 19306 ft 416 kts 61°
2026-05-06 07:20 47.91150 19.46160 19878 ft 420 kts 61°
2026-05-06 07:21 47.92544 19.49989 20424 ft 423 kts 61°
2026-05-06 07:21 47.93478 19.52558 20767 ft 424 kts 61°
2026-05-06 07:21 47.95361 19.57750 21445 ft 428 kts 61°
2026-05-06 07:21 47.96307 19.60356 21775 ft 430 kts 61°
2026-05-06 07:22 47.97731 19.64288 22264 ft 433 kts 61°
2026-05-06 07:22 47.99636 19.69558 22905 ft 437 kts 61°
2026-05-06 07:22 48.00611 19.72256 23224 ft 439 kts 61°
2026-05-06 07:22 48.02542 19.77603 23804 ft 443 kts 61°
2026-05-06 07:23 48.04005 19.81659 24175 ft 446 kts 61°
2026-05-06 07:23 48.04978 19.84359 24427 ft 448 kts 61°
2026-05-06 07:23 48.06460 19.88479 24814 ft 450 kts 61°
2026-05-06 07:23 48.07942 19.92618 25175 ft 453 kts 61°
2026-05-06 07:24 48.09427 19.96776 25550 ft 455 kts 61°
2026-05-06 07:24 48.10922 20.00979 25913 ft 458 kts 61°
2026-05-06 07:24 48.12418 20.05192 26314 ft 461 kts 61°
2026-05-06 07:24 48.13855 20.09505 26690 ft 464 kts 67°
2026-05-06 07:25 48.14899 20.14074 27051 ft 466 kts 76°
2026-05-06 07:25 48.15501 20.18867 27414 ft 469 kts 82°
2026-05-06 07:25 48.15958 20.23702 27780 ft 471 kts 82°
2026-05-06 07:25 48.16417 20.28516 28139 ft 473 kts 82°
2026-05-06 07:26 48.16886 20.33398 28506 ft 476 kts 82°
2026-05-06 07:26 48.17358 20.38323 28892 ft 477 kts 82°
2026-05-06 07:26 48.17823 20.43211 29439 ft 475 kts 82°
2026-05-06 07:26 48.18287 20.48117 29987 ft 474 kts 82°
2026-05-06 07:27 48.18745 20.52989 30436 ft 473 kts 82°
2026-05-06 07:27 48.19200 20.57860 30892 ft 471 kts 82°
2026-05-06 07:27 48.19650 20.62732 31343 ft 470 kts 82°
2026-05-06 07:27 48.20095 20.67583 31813 ft 469 kts 82°
2026-05-06 07:28 48.20537 20.72414 32274 ft 468 kts 82°
2026-05-06 07:28 48.20973 20.77190 32751 ft 467 kts 82°
2026-05-06 07:28 48.21848 20.86823 33665 ft 465 kts 82°
2026-05-06 07:29 48.22277 20.91618 34090 ft 465 kts 82°
2026-05-06 07:29 48.22704 20.96417 34487 ft 464 kts 82°
2026-05-06 07:29 48.23129 21.01220 34842 ft 464 kts 82°
2026-05-06 07:29 48.23553 21.06011 34940 ft 466 kts 82°
2026-05-06 07:30 48.24405 21.15641 34956 ft 470 kts 82°
2026-05-06 07:30 48.25266 21.25354 34957 ft 470 kts 82°
2026-05-06 07:31 48.26108 21.35079 34957 ft 470 kts 83°
2026-05-06 07:31 48.26934 21.44816 34959 ft 469 kts 83°
2026-05-06 07:32 48.27756 21.54535 34968 ft 469 kts 83°
2026-05-06 07:32 48.28571 21.64323 34974 ft 469 kts 83°
2026-05-06 07:33 48.29375 21.74040 34974 ft 469 kts 83°
2026-05-06 07:33 48.30168 21.83687 34978 ft 468 kts 83°
2026-05-06 07:34 48.30962 21.93458 34979 ft 468 kts 83°
2026-05-06 07:34 48.31735 22.03072 34984 ft 467 kts 83°
2026-05-06 07:35 48.32504 22.12765 34987 ft 467 kts 83°
2026-05-06 07:35 48.33264 22.22452 34990 ft 467 kts 83°
2026-05-06 07:36 48.34164 22.32095 34995 ft 465 kts 75°
2026-05-06 07:36 48.36176 22.41247 34997 ft 464 kts 70°
2026-05-06 07:37 48.38308 22.50408 34996 ft 464 kts 70°
2026-05-06 07:37 48.40418 22.59559 34998 ft 464 kts 70°
2026-05-06 07:38 48.42525 22.68745 34999 ft 464 kts 70°
2026-05-06 07:38 48.44630 22.77918 35000 ft 463 kts 70°
2026-05-06 07:39 48.46721 22.87099 35000 ft 463 kts 71°
2026-05-06 07:39 48.48757 22.96311 34996 ft 463 kts 71°
2026-05-06 07:40 48.50754 23.05479 34995 ft 463 kts 71°
2026-05-06 07:40 48.52771 23.14715 34990 ft 464 kts 71°
2026-05-06 07:41 48.54841 23.23933 34982 ft 464 kts 69°
2026-05-06 07:41 48.57146 23.33103 34982 ft 464 kts 68°
2026-05-06 07:42 48.59471 23.42136 34978 ft 465 kts 68°
2026-05-06 07:42 48.61760 23.51274 34976 ft 465 kts 69°
2026-05-06 07:43 48.64005 23.60449 34970 ft 465 kts 69°
2026-05-06 07:43 48.66212 23.69657 34972 ft 466 kts 70°
2026-05-06 07:44 48.68317 23.78937 34969 ft 466 kts 71°
2026-05-06 07:44 48.70409 23.88274 34970 ft 466 kts 70°
2026-05-06 07:45 48.72492 23.97494 34965 ft 466 kts 70°
2026-05-06 07:45 48.74587 24.06774 34969 ft 465 kts 71°
2026-05-06 07:46 48.76677 24.16048 34970 ft 465 kts 71°
2026-05-06 07:46 48.78751 24.25316 34967 ft 464 kts 71°
2026-05-06 07:47 48.80798 24.34513 34971 ft 463 kts 71°
2026-05-06 07:47 48.82848 24.43762 34970 ft 462 kts 71°
2026-05-06 07:48 48.84881 24.53004 34968 ft 461 kts 71°
2026-05-06 07:48 48.86011 24.62516 34957 ft 460 kts 91°
2026-05-06 07:49 48.85687 24.67321 34719 ft 458 kts 103°
2026-05-06 07:49 48.84730 24.71901 34472 ft 456 kts 116°
2026-05-06 07:49 48.83126 24.76042 34241 ft 454 kts 129°
2026-05-06 07:49 48.80991 24.79541 33776 ft 454 kts 138°
2026-05-06 07:50 48.78675 24.82769 32759 ft 460 kts 139°
2026-05-06 07:50 48.76303 24.86033 31844 ft 463 kts 139°
2026-05-06 07:50 48.73897 24.89329 30928 ft 467 kts 139°
2026-05-06 07:50 48.71482 24.92640 29843 ft 473 kts 139°
2026-05-06 07:51 48.69030 24.96006 28795 ft 474 kts 139°
2026-05-06 07:51 48.66580 24.99377 27599 ft 479 kts 139°
2026-05-06 07:51 48.64131 25.02749 26980 ft 471 kts 139°
2026-05-06 07:51 48.61726 25.06059 26255 ft 466 kts 139°
2026-05-06 07:52 48.59368 25.09304 25539 ft 461 kts 139°
2026-05-06 07:52 48.57013 25.12540 24831 ft 456 kts 139°
2026-05-06 07:52 48.54673 25.15752 24137 ft 451 kts 139°
2026-05-06 07:52 48.52334 25.18957 23416 ft 447 kts 139°
2026-05-06 07:53 48.50046 25.22083 22692 ft 442 kts 139°
2026-05-06 07:53 48.47780 25.25174 21996 ft 435 kts 139°
2026-05-06 07:53 48.45555 25.28201 21337 ft 429 kts 139°
2026-05-06 07:53 48.43353 25.31194 20698 ft 422 kts 139°
2026-05-06 07:54 48.41192 25.34127 20092 ft 416 kts 139°
2026-05-06 07:54 48.39078 25.36991 19508 ft 411 kts 139°
2026-05-06 07:54 48.36970 25.39842 18934 ft 406 kts 139°
2026-05-06 07:54 48.34877 25.42673 18386 ft 402 kts 139°
2026-05-06 07:55 48.32813 25.45462 17797 ft 398 kts 139°
2026-05-06 07:55 48.30764 25.48232 17234 ft 393 kts 139°
2026-05-06 07:55 48.28750 25.50952 16695 ft 388 kts 139°
2026-05-06 07:55 48.26777 25.53612 16133 ft 383 kts 139°
2026-05-06 07:56 48.24782 25.56302 15560 ft 379 kts 139°
2026-05-06 07:56 48.22822 25.58940 14989 ft 376 kts 139°
2026-05-06 07:56 48.20880 25.61549 14405 ft 374 kts 139°
2026-05-06 07:56 48.18923 25.64176 13813 ft 371 kts 139°
2026-05-06 07:57 48.17010 25.66740 13170 ft 368 kts 139°
2026-05-06 07:57 48.15113 25.69283 12574 ft 364 kts 139°
2026-05-06 07:57 48.13236 25.71798 11988 ft 360 kts 139°
2026-05-06 07:57 48.11378 25.74278 11405 ft 357 kts 139°
2026-05-06 07:58 48.09527 25.76747 10835 ft 355 kts 139°
2026-05-06 07:58 48.07720 25.79156 10680 ft 341 kts 139°
2026-05-06 07:58 48.06006 25.81443 10554 ft 327 kts 139°
2026-05-06 07:58 48.04339 25.83663 10433 ft 316 kts 140°
2026-05-06 07:59 48.02720 25.85814 10314 ft 306 kts 140°
2026-05-06 07:59 48.01159 25.87883 10193 ft 296 kts 140°
2026-05-06 07:59 47.99612 25.89930 10024 ft 290 kts 140°
2026-05-06 07:59 47.98126 25.91902 9946 ft 286 kts 140°
2026-05-06 08:00 47.96616 25.93905 9459 ft 293 kts 139°
2026-05-06 08:00 47.95270 25.96139 9216 ft 290 kts 126°
2026-05-06 08:00 47.94331 25.98803 8875 ft 290 kts 113°
2026-05-06 08:00 47.93572 26.01587 8524 ft 289 kts 113°
2026-05-06 08:01 47.92820 26.04321 8197 ft 279 kts 113°
2026-05-06 08:01 47.92077 26.07012 7494 ft 283 kts 113°
2026-05-06 08:01 47.91323 26.09731 6861 ft 284 kts 113°
2026-05-06 08:01 47.90571 26.12438 6348 ft 280 kts 113°
2026-05-06 08:02 47.89827 26.15106 5749 ft 280 kts 113°
2026-05-06 08:02 47.89077 26.17793 5115 ft 281 kts 113°
2026-05-06 08:02 47.88318 26.20506 4490 ft 280 kts 113°
2026-05-06 08:02 47.87568 26.23193 3862 ft 279 kts 113°
2026-05-06 08:03 47.86699 26.25745 3256 ft 276 kts 128°
2026-05-06 08:03 47.85348 26.27604 3037 ft 260 kts 149°
2026-05-06 08:03 47.83781 26.28608 2998 ft 226 kts 165°
2026-05-06 08:03 47.82369 26.29244 3008 ft 197 kts 164°
2026-05-06 08:04 47.81126 26.29812 3008 ft 175 kts 165°
2026-05-06 08:04 47.80039 26.30310 3022 ft 155 kts 165°
2026-05-06 08:04 47.79022 26.30774 3002 ft 148 kts 165°
2026-05-06 08:04 47.78049 26.31216 3020 ft 146 kts 165°
2026-05-06 08:05 47.77083 26.31653 2949 ft 146 kts 165°
2026-05-06 08:05 47.76103 26.32095 2737 ft 147 kts 165°
2026-05-06 08:05 47.75145 26.32528 2521 ft 143 kts 165°
2026-05-06 08:05 47.74189 26.32960 2330 ft 142 kts 165°
2026-05-06 08:06 47.73247 26.33386 2147 ft 141 kts 165°
2026-05-06 08:06 47.72317 26.33803 1947 ft 139 kts 164°
2026-05-06 08:06 47.71390 26.34219 1772 ft 139 kts 165°
2026-05-06 08:06 47.70476 26.34630 1578 ft 137 kts 163°
2026-05-06 08:07 47.69552 26.35033 1400 ft 133 kts 166°
2026-05-06 08:07 47.68822 26.35371 1360 ft 62 kts 158°
2026-05-06 08:07 47.68670 26.35424 1357 ft 17 kts 165°
2026-05-06 08:07 47.68535 26.35406 1354 ft 22 kts 243°
2026-05-06 08:08 47.68508 26.35269 1352 ft 10 kts 258°
2026-05-06 08:08 47.68534 26.35207 1352 ft 3 kts 356°
2026-05-06 08:08 47.68582 26.35194 1354 ft 9 kts 322°
2026-05-06 08:08 47.68591 26.35156 1354 ft 6 kts 279°
2026-05-06 08:09 47.68597 26.35117 1354 ft 0 kts 258°
2026-05-06 08:09 47.68596 26.35110 1354 ft 0 kts 259°